Location: Alfortville
(48.8058°N, 2.4204°E)
Time: 10:55:42
(UTC+00:00)

Okean-O - Pass Details

Date: 24 October 2021
Orbit: 638 x 640 km, 98.2° (Epoch: 01 December)

Event Time Altitude Azimuth Distance (km) Brightness Sun altitude
Exits shadow 19:40:23 33° 238° (WSW) 1,077 4.0 -29.6°
Maximum altitude 19:41:13 36° 263° (W) 1,015 4.0 -29.7°
Drops below altitude 10° 19:45:20 10° 330° (NNW) 2,043 5.7 -30.3°
Sets 19:47:42 0° 339° (NNW) 2,958 6.5 -30.7°
